Other Public Products
Issued by NWS Grand Forks, ND

Home | Current Version | Previous Version | Text Only | Print | Product List | Glossary On
Versions: 1 2 3 4 5 6 7 8 9 10 11 12 13 14 15 16 17 18 19 20 21 22 23 24 25 26 27 28 29 30 31 32 33 34 35 36 37 38 39 40 41 42 43 44 45 46 47 48 49 50
000
FPUS83 KFGF 251131
OPUFGF
PRAIRIE TO PINES WEATHER ROUNDUP
NATIONAL WEATHER SERVICE EASTERN NORTH DAKOTA/GRAND FORKS ND
600 AM CDT MON JUL 25 2016

 **SATELLITE DATA USED TO AUGMENT SKY COVER AT AUTOMATED STATIONS**
 *****  WEATHER ACROSS EASTERN NORTH DAKOTA  *****

CITY           SKY/WX    TMP DP  RH WIND       PRES   REMARKS
GRAND FORKS    FAIR      59  56  89 W3        29.99R
GRAND FORKS AF FAIR      60  57  92 W5        30.00R
GRAND CITY NWS   N/A     59 N/A N/A W2          N/A
BUXTON           N/A     43  60 100 W3          N/A
DEVILS LAKE    FAIR      61  59  93 W5        30.03S
FARGO          FAIR      57  55  93 CALM      30.02R
WAHPETON ARPT  FAIR      57  54  88 W3        30.04S
$$

 *****  WEATHER ACROSS CENTRAL AND WESTERN NORTH DAKOTA  *****

CITY           SKY/WX    TMP DP  RH WIND       PRES   REMARKS
JAMESTOWN      FAIR      58  57  97 CALM      30.03S
BISMARCK       FAIR      59  58  96 E5        30.02F
MINOT          FAIR      61  58  90 CALM      29.99F
MINOT AFB      FAIR      56  55  94 SE3       29.98F
GARRISON         N/A     59  58  96 E5        30.00S
WILLISTON      FAIR      60  55  83 N3        29.97S
DICKINSON      FAIR      56  50  80 S12       29.99S
HETTINGER      FAIR      62  50  64 SE3       30.03S
$$

 *****  OTHER OBSERVATIONS NORTHEAST NORTH DAKOTA  *****

CITY           SKY/WX    TMP DP  RH WIND       PRES   REMARKS
WALHALLA       FAIR      61  57  88 W7        30.00R
LANGDON        FAIR      55  55 100 CALM      30.03S
CAVALIER       FAIR      59  57  94 W7        29.99S
GRAFTON        FAIR      61  61 100 W5        30.01S
CANDO          FAIR      55  55 100 CALM      30.04S
FORT TOTTEN      N/A     59  56  90 CALM      29.95S
ROLLA          FAIR      55  55 100 CALM      30.04S
RUGBY          NOT AVBL
 ***** THE ABOVE OBSERVATIONS ARE NON NWS ARE NOT QUALITY
        CONTROLLED AND MAY MIS-REPORT RAIN FOR SNOW...
$$

 *****  OTHER OBSERVATIONS SOUTHEAST NORTH DAKOTA *****

CITY           SKY/WX    TMP DP  RH WIND       PRES   REMARKS
COOPERSTOWN    NOT AVBL
VALLEY CITY      N/A     57  57 100 CALM      30.06S
OAKES            N/A    N/A N/A N/A MISG        N/A
GWINNER        FAIR      57  57 100 SW3       30.05S
SHEYENNE NWR     N/A     56  55  97 CALM      29.95S
BUFFALO          N/A     61  57  88 CALM        N/A
WYNDMERE         N/A     61  57  88 W2          N/A
 ***** THE ABOVE OBSERVATIONS ARE NON NWS ARE NOT QUALITY
       CONTROLLED AND MAY MIS-REPORT RAIN FOR SNOW...
$$

  *****  WEATHER ACROSS NORTHERN MINNESOTA  *****

CITY           SKY/WX    TMP DP  RH WIND       PRES   REMARKS
FLAG ISLAND    FAIR      63  59  88 W10       29.95S
WARROAD        MOCLDY    61  55  82 W2        29.98S
ROSEAU         FAIR      61  55  82 SW5       29.99R
HALLOCK        FAIR      57  55  94 CALM      29.99R FOG
THF RVR FALLS  FAIR      59  58  96 CALM      30.01S FOG
HALSTAD        NOT AVBL
FOSSTON        FAIR      54  54 100 S3        30.03R
BAUDETTE       FAIR      57  57 100 CALM      29.98R
WASKISH        FAIR      66  63  88 W6        30.00R
CROOKSTON      FAIR      57  57 100 W3        30.02R
$$
  *****  WEATHER ACROSS CENTRAL AND WEST MINNESOTA  *****

CITY           SKY/WX    TMP DP  RH WIND       PRES   REMARKS
BEMIDJI        FAIR      59  57  94 W5        30.02R
PARK RAPIDS    FAIR      58  56  93 W3        30.03R
WADENA         FAIR      57  57 100 W5        30.04R
DETROIT LAKES  FAIR      63  55  77 NW5       30.05R
MOORHEAD       MOCLDY    61  57  88 CALM      30.03S
FERGUS FALLS   FAIR      61  61 100 CALM      30.06S
ELBOW LAKE     FAIR      59  58  96 NW6       30.05S
MORRIS MN      FAIR      61  57  88 CALM      30.04R
STAPLES        FAIR      57  57 100 CALM      30.04R
WHEATON        FAIR      63  59  88 CALM      30.06R
$$
  *****  WEATHER ELSEWHERE ACROSS MINNESOTA  *****

CITY           SKY/WX    TMP DP  RH WIND       PRES   REMARKS
DULUTH         FAIR      61  60  97 NW8       29.98R
INTRNTL FALLS  FAIR      57  56  96 SW3       29.97R
ELY            FAIR      57  55  94 W3        29.97R
CLOQUET        FAIR      61  57  88 W6        30.00R
BRAINERD       FAIR      61  59  93 CALM      30.02R
HIBBING        FAIR      54  54 100 CALM      29.99R FOG
ALEXANDRIA     FAIR      62  58  86 CALM      30.06R
SAINT CLOUD    FAIR      59  59 100 CALM      30.02R
MINNEAPOLIS    FAIR      67  60  78 CALM      30.02R
$$

  *****  WEATHER ACROSS SOUTH DAKOTA  *****

CITY           SKY/WX    TMP DP  RH WIND       PRES   REMARKS
SIOUX FALLS    FAIR      59  57  93 CALM      30.09R
BROOKINGS      FAIR      60  58  92 SW3       30.09R
WATERTOWN      FAIR      61  57  87 CALM      30.08R
HURON          FAIR      60  58  92 SE3       30.06R
SISSETON         N/A     57  55  93 CALM      30.03S
ABERDEEN       FAIR      56  54  93 S6        30.05R
MITCHELL       FAIR      61  59  93 CALM      30.08R
PIERRE         FAIR      69  55  60 S6        30.05R
MOBRIDGE       FAIR      67  58  72 SE9       30.01F
RAPID CITY     FAIR      65  55  70 SE12      30.08S
$$

  *****  SOME WEATHER IN NEARBY STATES *****

CITY           SKY/WX    TMP DP  RH WIND       PRES   REMARKS
GLASGOW MT     CLEAR     57  51  80 NE6       29.97S
GREAT FALLS MT CLEAR     55  42  61 S6        30.07R
CHEYENNE WY    FAIR      55  53  93 SW7       30.24F
SCOTTSBLUFF NE FAIR      58  55  90 SE9       30.16F
OMAHA NE       FAIR      65  62  90 NW7       30.09R
DES MOINES IA  FAIR      70  64  81 N8        30.07R
DAVENPORT IA   FAIR      67  65  93 NW6       30.03R
CHICAGO IL     MOCLDY    73  69  87 W7        29.96R
EAU CLAIRE WI  FAIR      64  61  90 S5        29.99R
LA CROSSE WI   FAIR      68  64  87 CALM      30.01R
$$

  *****  SOME NATIONAL WEATHER *****

CITY           SKY/WX    TMP DP  RH WIND       PRES   REMARKS
LA GUARDIA NY  CLOUDY    82  67  60 S9        29.94R
RALEIGH NC     PTCLDY    78  75  90 SW7       30.05S
ATLANTA GA     PTCLDY    77  70  79 CALM      30.08R
NEW ORLEANS LA MOCLDY    80  76  87 NW5       29.95R
OKLAHOMA CITY  CLOUDY    80  70  71 W6        30.01R
ALBUQUERQUE NM CLOUDY    69  57  65 E6        30.24R
SALT LAKE CITY FAIR      76  39  26 S9        30.03F
LOS ANGELES CA FAIR      70  65  84 CALM      29.91F
BOISE ID       FAIR      66  36  32 SE10      29.99R
SEATTLE WA     FAIR      61  56  83 CALM      30.05R
$$

*** WEATHER ACROSS MANITOBA...SASKATCHEWAN AND ONTARIO ***
                ***ONTARIO***

CITY           SKY/WX    TMP DP  RH WIND       PRES   REMARKS
GERALDTON      LGT RAIN  63  61  94 NW9       29.73R
THUNDER BAY    PTCLDY    66  57  72 W10       29.83R
SIOUX LOOKOUT  MOCLDY    61  59  94 W3        29.89R
TORONTO        MOCLDY    73  72  94 SE3       29.82F
BIG TROUT LK   CLOUDY    57  55  94 NW14G22   29.69
PICKLE LAKE    PTCLDY    61  57  88 W12       29.79
DRYDEN         CLEAR     57  55  94 W9        29.92R
KENORA         PTCLDY    61  59  94 W8        29.95R
$$
                *** MANITOBA***

CITY           SKY/WX    TMP DP  RH WIND       PRES   REMARKS
BRANDON        CLEAR     50  50 100 NW6       30.00R
DAUPHIN        CLEAR     61  55  82 SW10      29.92S
ISLAND LAKE    PTCLDY    61  59  94 SW5       29.80S
PILOT MOUND      N/A     54  52  94 SW3         N/A
THE PAS        MOCLDY    66  57  72 SW10      29.79R
THOMPSON       PTCLDY    59  57  94 VRB2      29.68F
WINNIPEG       CLEAR     61  59  94 W9        29.95R
LYNN LAKE      CLEAR     57  54  88 MISG      29.66R
CHURCHILL      FOG       48  48 100 S10       29.73F VSB 1/2
GILLAM         FOG       50  48  93 SE5       29.74F VSB 1/4
$$
                ***SASKATCHEWAN***

CITY           SKY/WX    TMP DP  RH WIND       PRES   REMARKS
ESTEVAN        PTCLDY    57  55  94 E7        29.99S
KINDERSLEY     PTCLDY    59  55  88 NE10      30.00R
LLOYDMINSTER   CLEAR     55  54  94 W9        29.99R
PRINCE ALBERT  LGT RAIN  61  59  94 SW7       29.91R
REGINA         PTCLDY    55  52  88 SE7       29.98S
YORKTON        CLEAR     61  55  82 SW10      29.95S   C1F1C2F2C3F3C4F4C5F5C6F6C7F7C8F8C9F9CaFaCbFbCcFcCdFdCe!


USA.gov is the U.S. government's official web portal to all federal, state and local government web resources and services.